CAPE
395 156 425 324 287 332 301 228 145 294 374 234 120 225 389 703 341 221 499 841 693 921 1222 1267 1275 1297 1068 1241 1003 1101 938 1214 1146
189 497 465 407 382 388 279 232 157 175 399 234 148 66 56 186 723 636 319 753 870 969 908 1016 1291 1557 1252 1253 1293 922 1156 1165 1035
291 356 432 492 469 456 387 291 240 160 137 299 251 119 58 0 204 584 754 342 670 1002 998 1049 1036 1602 1457 1151 1250 1230 962 1106 1137
197 349 349 485 500 449 434 422 393 303 249 144 451 346 153 37 17 227 793 660 267 745 1162 1086 1116 1422 1528 1376 1222 1243 1240 1149 901
260 333 397 386 473 468 404 373 369 314 251 222 173 458 356 163 0 60 339 792 540 217 811 804 1165 1350 1578 1479 1304 1318 1220 1366 1191
151 341 352 388 511 503 447 471 392 325 366 345 290 396 411 405 170 0 84 379 639 547 199 607 1583 1538 1723 1618 1504 1535 1601 1577 1454
427 294 350 341 152 217 138 296 445 427 420 534 450 454 491 539 608 259 28 49 318 400 577 132 847 1675 1580 1519 1669 1786 1707 1733 1666
206 256 153 101 160 111 125 120 355 433 450 502 674 578 664 512 703 747 450 197 17 150 266 457 301 1066 1662 1615 1460 1427 1393 1455 1558
75 158 182 214 142 134 156 89 63 337 383 475 794 832 802 913 650 862 852 671 506 194 9 178 539 920 1130 1476 1610 1452 1410 1379 1449
27 89 119 89 130 75 48 87 58 61 100 475 495 1097 1126 1157 1237 1017 943 928 870 763 532 81 280 593 1217 1361 1454 1506 1526 1343 1193
0 0 160 121 34 176 38 87 227 188 281 319 684 751 1394 1559 1497 1439 1355 1153 1020 990 896 748 409 549 540 1057 1440 1794 1790 1623 1497
0 0 4 174 18 49 92 122 304 421 431 377 597 1024 993 1164 1672 1595 1518 1433 1300 1187 1132 1043 982 580 1036 851 777 1117 1540 1813 1790
0 0 0 0 1 1 43 31 397 502 642 241 157 965 1056 1065 1099 1510 1610 1509 1452 1364 1311 1217 1138 1046 857 1190 1384 1430 1458 1686 1561
0 0 0 0 0 0 4 28 129 478 433 412 545 475 846 1085 976 1241 1479 1506 1476 1438 1394 1309 1240 1186 1066 879 939 1227 1506 1651 1624
0 0 0 0 0 0 7 0 0 10 274 327 416 551 461 581 1495 1602 1735 1504 1542 1465 1407 1400 1308 1350 1429 1210 1276 1543 1610 1738 1876
0 0 0 0 0 0 0 0 0 3 1 106 92 85 218 341 1000 1887 1745 1852 1686 1583 1466 1481 1523 1335 1269 1552 1603 1564 1760 1841 1867
0 0 0 0 0 0 0 0 0 0 0 34 108 354 146 324 856 1833 2035 1946 1935 1805 1667 1525 1524 1660 1587 1506 1598 1765 1800 1865 2057
0 0 0 0 0 2 0 0 1 0 2 27 75 231 557 847 1252 1890 2210 2060 2104 2026 1922 1751 1656 1615 1620 1659 1674 1694 1900 1991 2022
3 0 9 1 0 2 0 0 4 2 0 2 18 83 330 1104 1431 2065 2436 2432 2290 2221 2155 2038 1903 1758 1737 1767 1830 1884 1972 2048 2299
12 29 22 12 17 0 0 0 0 0 0 3 5 145 148 837 1554 2384 2640 2537 2563 2426 2398 2283 2121 2022 1968 1980 2031 2058 2175 2389 2362
CIN
-114 -228 -91 -112 -75 -56 -44 -36 -42 -229 -226 -199 -164 -128 -84 -77 -58 -82 -60 -30 -79 -57 -49 -53 -81 -46 -51 -61 -48 -52 -38 -39 -39
-63 -87 -109 -124 -91 -77 -51 -53 -73 -63 -251 -246 -190 -230 -161 -129 -85 -94 -96 -45 -26 -34 -50 -58 -53 -43 -22 -59 -70 -69 -60 -52 -66
-239 -161 -126 -120 -93 -95 -112 -63 -67 -52 -97 -249 -246 -188 -139 0 -139 -124 -76 -106 -65 -46 -48 -66 -59 -73 -29 -50 -67 -63 -75 -53 -52
-37 -79 -107 -151 -146 -112 -110 -124 -105 -88 -66 -215 -237 -193 -169 -184 -214 -145 -124 -69 -117 -26 -34 -32 -42 -108 -66 -31 -78 -50 -68 -41 -55
-167 -267 -66 -114 -128 -96 -97 -98 -122 -136 -139 -106 -346 -242 -189 -179 0 -228 -160 -107 -91 -133 -28 -46 -66 -109 -88 -46 -89 -69 -80 -46 -32
-264 -254 -164 -87 -43 -83 -144 -94 -92 -126 -123 -371 -335 -257 -210 -199 -207 0 -276 -154 -118 -85 -100 -88 -62 -83 -83 -87 -79 -54 -54 -34 -29
-111 -127 -67 -23 -32 -374 -286 -183 -106 -126 -151 -363 -339 -287 -224 -180 -197 -200 -80 -278 -142 -134 -91 -168 -147 -55 -63 -62 -55 -33 -44 -37 -42
-152 -129 -85 -40 -74 -252 -184 -140 -28 -17 -87 -224 -315 -325 -274 -242 -196 -185 -164 -149 -68 -209 -222 -128 -198 -98 -45 -41 -61 -50 -46 -49 -53
-23 -83 -99 -106 -118 -208 -151 -145 -185 -23 -63 -95 -195 -260 -248 -216 -219 -174 -173 -156 -121 -134 -188 -272 -146 -110 -99 -40 -26 -37 -74 -63 -66
-21 -32 -31 -28 -41 -86 -147 -116 -162 -298 -180 -102 -113 -172 -196 -162 -150 -173 -171 -149 -124 -121 -142 -85 -247 -159 -69 -73 -55 -36 -44 -54 -67
0 -12 -3 -1 -9 -50 -58 -54 -20 -105 -231 -230 -60 -79 -116 -152 -135 -113 -141 -113 -119 -109 -113 -138 -185 -192 -181 -100 -52 -43 -29 -39 -36
0 0 -10 -10 -16 -21 -12 -26 -80 -209 -261 -163 -94 -48 -67 -108 -78 -83 -103 -124 -114 -113 -94 -118 -129 -183 -134 -147 -174 -113 -50 -23 -18
0 0 0 0 -15 -1 -9 -80 -167 -149 -120 -57 -52 -33 -53 -72 -20 -45 -100 -127 -111 -126 -118 -119 -118 -121 -148 -124 -104 -98 -82 -40 -26
0 0 0 0 0 0 -42 -215 -94 -36 -68 -86 -205 -252 -163 -86 -65 -44 -119 -131 -142 -115 -125 -97 -122 -133 -129 -145 -170 -135 -94 -63 -33
0 0 0 0 0 0 -66 -42 0 -14 -16 -101 -125 -107 -58 -125 -53 -52 -33 -118 -142 -118 -112 -103 -107 -126 -130 -150 -127 -98 -89 -66 -29
0 0 0 0 0 0 0 0 0 -65 -91 -117 -170 -140 -121 -79 -50 -58 -47 -36 -52 -132 -105 -100 -118 -130 -171 -146 -103 -101 -97 -82 -61
0 0 0 0 0 0 0 0 0 0 0 -195 -220 -175 -255 -310 -183 -83 -38 -45 -32 -24 -109 -129 -128 -131 -159 -177 -131 -112 -107 -92 -66
0 0 0 0 0 0 0 0 -49 0 -111 -134 -195 -299 -251 -193 -120 -72 -52 -48 -51 -44 -47 -75 -169 -186 -149 -148 -175 -188 -135 -107 -106
-7 0 -10 0 0 0 0 0 -203 -4 0 -89 -187 -186 -119 -54 -51 -67 -32 -36 -37 -51 -38 -26 -44 -84 -132 -151 -161 -139 -129 -114 -96
-5 -5 -1 -1 0 0 0 0 0 0 0 -169 -196 -183 -269 -104 -37 -8 -16 -20 -16 -33 -56 -28 -26 -31 -67 -77 -105 -65 -73 -60 -60
Wind_Speed
14 8 4 13 6 3 5 6 3 7 8 6 8 8 9 10 7 12 11 11 10 7 7 7 3 3 4 6 8 6 6 7 6
20 19 12 14 14 7 5 6 6 3 8 7 7 nan nan 12 12 11 12 11 11 9 7 8 3 2 3 6 7 7 6 6 8
13 22 17 19 23 14 10 15 8 5 9 9 10 10 nan nan 14 15 16 15 13 11 11 7 6 4 2 4 6 4 4 4 6
19 10 9 17 17 23 18 17 13 9 8 9 13 11 11 nan nan 13 16 14 13 12 12 7 7 4 5 5 6 3 3 5 6
12 8 6 15 17 21 29 13 18 12 14 10 11 12 13 13 nan nan 14 16 13 12 12 12 10 8 6 6 5 6 4 3 4
25 21 18 15 14 11 17 19 21 17 21 13 13 16 15 14 14 nan nan 11 17 17 15 16 15 14 11 10 8 8 6 4 4
44 36 30 28 29 20 33 49 45 38 17 17 12 13 13 12 13 13 nan nan 15 19 18 14 15 16 14 13 12 10 8 7 5
55 56 46 49 39 38 42 37 39 49 35 17 10 5 5 6 9 15 19 16 nan 15 17 14 16 16 15 14 13 13 10 9 8
nan 51 54 54 47 49 42 nan nan 42 44 28 13 6 4 6 5 7 13 20 17 18 nan 14 17 15 12 13 14 13 15 14 12
nan nan 52 nan 53 nan nan nan nan nan 30 40 24 12 11 9 9 4 6 16 21 16 15 nan 13 14 16 12 12 15 15 15 15
nan nan 52 53 nan 42 nan nan 38 38 38 39 41 30 16 13 7 8 6 9 14 17 18 16 15 15 14 15 15 16 15 14 15
nan nan nan 54 nan nan nan 51 48 42 38 44 40 38 33 25 12 5 6 6 7 14 18 18 16 17 16 14 14 18 17 20 16
nan nan nan nan nan nan nan nan 50 44 39 41 52 51 39 36 25 11 4 4 8 12 15 16 22 18 18 17 17 21 20 22 17
nan nan nan nan nan nan nan nan 52 51 38 53 68 52 62 42 36 17 7 8 10 12 14 17 16 17 19 18 18 18 22 24 20
nan nan nan nan nan nan nan nan nan nan 45 42 46 40 36 51 44 21 17 12 14 9 10 13 16 19 21 20 21 21 24 24 21
nan nan nan nan nan nan nan nan nan nan nan 47 nan nan 50 46 46 29 21 17 17 16 9 9 15 19 20 22 24 24 21 25 23
nan nan nan nan nan nan nan nan nan nan nan nan 54 47 57 50 48 37 25 27 26 21 15 10 10 15 19 23 25 24 25 28 28
nan nan nan nan nan nan nan nan nan nan nan nan nan 56 55 50 45 39 33 30 29 25 16 15 15 14 15 22 22 21 26 27 29
nan nan nan nan nan nan nan nan nan nan nan nan nan nan 45 46 46 47 44 38 38 50 39 20 18 20 20 17 14 23 27 26 29
nan nan nan nan nan nan nan nan nan nan nan nan nan 49 53 54 43 46 49 43 40 36 45 47 35 23 20 18 19 20 19 23 26
Wind_Direction
345 230 295 310 359 342 350 351 19 275 273 248 230 212 183 188 178 182 179 170 171 172 177 155 158 65 59 44 45 50 59 77 69
305 301 302 326 308 268 266 321 11 280 254 242 239 nan nan 178 181 189 198 182 196 191 197 190 210 321 12 11 27 51 51 71 66
327 316 256 310 303 275 281 288 279 281 240 243 232 212 nan nan 176 183 203 203 201 202 207 214 238 265 325 347 5 37 49 66 72
199 246 324 292 264 245 231 280 285 299 306 269 241 232 216 nan nan 188 203 218 221 222 226 231 240 279 316 335 339 342 4 53 51
206 182 292 306 291 269 263 234 278 295 317 306 273 234 226 214 nan nan 193 201 211 225 235 246 263 277 286 295 299 292 318 18 22
213 196 194 192 220 257 246 252 234 287 297 297 266 243 220 227 225 nan nan 196 213 215 215 229 238 251 272 279 283 284 280 312 334
213 216 203 191 196 217 203 207 222 248 253 264 274 258 234 208 227 227 nan nan 211 221 216 220 235 242 247 257 265 274 271 273 282
213 211 215 209 204 192 208 210 224 221 202 230 238 262 254 221 208 228 231 227 nan 221 227 215 229 241 249 257 262 259 268 264 269
nan 207 209 211 210 220 202 nan nan 185 194 189 211 190 156 203 206 236 238 233 230 227 nan 231 231 239 253 261 258 272 282 275 261
nan nan 211 nan 219 nan nan nan nan nan 211 205 192 195 205 184 197 196 240 226 226 229 232 nan 234 236 245 252 259 275 283 285 260
nan nan 208 214 nan 223 nan nan 197 208 222 218 206 203 207 208 200 203 220 222 216 216 228 240 240 234 240 247 251 270 282 284 263
nan nan nan 210 nan nan nan 209 202 204 206 207 215 201 204 204 199 180 222 222 203 214 218 223 238 242 237 242 245 270 280 271 261
nan nan nan nan nan nan nan nan 193 196 211 225 210 210 199 202 191 172 175 215 216 214 220 219 225 235 242 243 243 259 276 279 264
nan nan nan nan nan nan nan nan 228 219 227 221 205 207 215 200 182 168 196 212 224 215 227 223 229 232 239 245 250 253 272 282 270
nan nan nan nan nan nan nan nan nan nan 236 216 202 203 192 201 187 186 206 234 240 225 233 230 229 237 240 237 243 257 264 276 285
nan nan nan nan nan nan nan nan nan nan nan 227 nan nan 198 196 184 190 201 229 251 249 245 242 241 236 238 242 241 244 264 274 278
nan nan nan nan nan nan nan nan nan nan nan nan 214 220 207 195 189 188 209 213 227 236 239 246 257 254 247 243 242 246 253 255 254
nan nan nan nan nan nan nan nan nan nan nan nan nan 195 192 197 195 197 208 210 224 232 229 241 249 251 245 246 245 246 251 255 255
nan nan nan nan nan nan nan nan nan nan nan nan nan nan 220 210 213 206 207 217 218 222 218 229 243 247 247 243 252 267 268 266 270
nan nan nan nan nan nan nan nan nan nan nan nan nan 223 226 238 230 217 214 217 218 223 224 228 232 242 252 248 257 271 283 276 270